Mazatlan Airport, Mexico

10:27 PM MDT on August 17, 2017 (GMT -0600)
Gen Rafael Buelna International

Weather History for MMMZ - January, 2014

Change the Weather History Date:

Monday, January 6, 2014

  Actual Average Record
Temperature  
Mean Temperature 72 °F -  
Max Temperature 84 °F 79 °F 84 °F (1999)
Min Temperature 60 °F 51 °F 46 °F (2000)
Cooling Degree Days 7    
Growing Degree Days 22 (Base 50)    
Moisture  
Dew Point 60 °F    
Average Humidity 70    
Maximum Humidity 87    
Minimum Humidity 38    
Precipitation  
Precipitation 0.00 in - - ()
Sea Level Pressure  
Sea Level Pressure 29.93 in    
Wind  
Wind Speed 6 mph ()    
Max Wind Speed 14 mph    
Max Gust Speed -    
Visibility 11.2 miles    
Events      
Averages and records for this station are not official NWS values.
T = Trace of Precipitation, MM = Missing Value Source: Averaged Metar Reports

Daily Weather History Graph

Daily Weather History Graph

Search for Another Location

Airport or City:

Trip Planner

Search our weather history database for the weather conditions in past years. The results will help you decide how hot, cold, wet, or windy it might be!

Date:

Astronomy

Jan. 06, 2014 Rise Set
Actual Time 6:47 AM MST 5:34 PM MST
Civil Twilight 6:23 AM MST 5:58 PM MST
Nautical Twilight 5:55 AM MST 6:26 PM MST
Astronomical Twilight 5:27 AM MST 6:54 PM MST
Moon 10:47 AM MST (1/6) 11:23 PM MST (1/6)
Length of Visible Light 11h 35m
Length of Day
10h 46m
Waxing Crescent, 35% of the Moon is Illuminated
Jan 6
Waxing Crescent
Jan 7
First Quarter
Jan 15
Full
Jan 23
Last Quarter
Jan 30
New

Hourly Weather History & Observations

Time (MST) Temp. Heat Index Dew Point Humidity Pressure Visibility Wind Dir Wind Speed Gust Speed Precip Events Conditions
12:43 AM 64.4 °F - 55.4 °F 73% 29.92 in 10.0 mi NNE 8.1 mph - N/A   Overcast
1:46 AM 62.6 °F - 55.4 °F 77% 29.91 in 10.0 mi Calm Calm - N/A   Overcast
2:00 AM 70 °F - 61 °F 65% 29.92 in - NNW 2.2 mph - -  
2:43 AM 62.6 °F - 55.4 °F 77% 29.90 in 10.0 mi South 6.9 mph - N/A   Overcast
3:51 AM 62.6 °F - 55.4 °F 77% 29.89 in 10.0 mi NNE 9.2 mph - N/A   Overcast
4:46 AM 60.8 °F - 55.4 °F 82% 29.90 in 8.0 mi NNE 8.1 mph - N/A   Overcast
5:00 AM 68 °F - 62 °F 74% 29.92 in - NNW 2.2 mph - -  
5:43 AM 62.6 °F - 55.4 °F 77% 29.92 in 10.0 mi NW 6.9 mph - N/A   Overcast
6:46 AM 62.6 °F - 55.4 °F 77% 29.94 in 10.0 mi NNE 8.1 mph - N/A   Overcast
7:42 AM 62.6 °F - 55.4 °F 77% 29.96 in 10.0 mi NNE 8.1 mph - N/A   Overcast
8:00 AM 69 °F - 64 °F 77% 29.99 in - NNW 2.2 mph - -  
8:45 AM 64.4 °F - 57.2 °F 77% 29.99 in 10.0 mi North 6.9 mph - N/A   Overcast
9:40 AM 71.6 °F - 57.2 °F 60% 29.99 in 10.0 mi North 8.1 mph - N/A   Mostly Cloudy
10:41 AM 73.4 °F - 59.0 °F 61% 29.98 in 14.0 mi North 8.1 mph - N/A   Partly Cloudy
11:00 AM 84 °F - 63 °F 38% 29.99 in - WSW 2.2 mph - -  
11:40 AM 78.8 °F - 59.0 °F 51% 29.94 in 15.0 mi NE 6.9 mph - N/A   Clear
12:41 PM 80.6 °F 81.8 °F 62.6 °F 54% 29.91 in 15.0 mi SSE 10.4 mph - N/A   Clear
1:40 PM 78.8 °F - 62.6 °F 57% 29.90 in 15.0 mi SSW 11.5 mph - N/A   Clear
2:00 PM 80 °F - 68 °F 60% 29.92 in - WSW 6.7 mph - -  
2:43 PM 78.8 °F - 62.6 °F 57% 29.89 in 15.0 mi SW 10.4 mph - N/A   Partly Cloudy
3:43 PM 75.2 °F - 62.6 °F 65% 29.88 in 15.0 mi WSW 12.7 mph - N/A   Clear
4:45 PM 75.2 °F - 62.6 °F 65% 29.91 in 12.0 mi West 13.8 mph - N/A   Scattered Clouds
5:00 PM 76 °F - 67 °F 68% 29.92 in - West 8.9 mph - -  
5:48 PM 71.6 °F - 62.6 °F 73% 29.91 in 10.0 mi West 10.4 mph - N/A   Scattered Clouds
6:44 PM 69.8 °F - 60.8 °F 73% 29.92 in 10.0 mi WNW 8.1 mph - N/A   Scattered Clouds
7:45 PM 68.0 °F - 60.8 °F 78% 29.94 in 10.0 mi NW 5.8 mph - N/A   Scattered Clouds
8:00 PM 73 °F - 68 °F 78% 29.96 in - WNW 4.5 mph - -  
8:41 PM 66.2 °F - 59.0 °F 78% 29.95 in 10.0 mi NW 5.8 mph - N/A   Scattered Clouds
9:50 PM 66.2 °F - 59.0 °F 78% 29.96 in 10.0 mi NW 5.8 mph - N/A   Partly Cloudy
10:46 PM 62.6 °F - 57.2 °F 82% 29.94 in 10.0 mi Calm Calm - N/A   Clear
11:00 PM 68 °F - 65 °F 87% 29.96 in - Calm Calm - -  
11:41 PM 62.6 °F - 57.2 °F 82% 29.94 in 10.0 mi East 6.9 mph - N/A   Clear